contact:dominique.lefevre@mio.osupytheas.fr, maurice.libes@osupytheas.fr, didier.mallarino@osupytheas.fr
Project:EMSO http://www.emso-fr.org/EMSO-France
Depth: 2436.0 m
Title:EMSO Ligure Ouest : Data MII capteur MICROCAT
DateTime_Computer,Latitude,Longitude,Temperature,Conductivity,Pressure,DateTime_Instrument
DateTime_Computer,Latitude,Longitude,degC,S m-1,dbar,DateTime_Instrument
2023-09-27T00:01:31Z,42.805,6.029,13.3032,4.60102,2470.637,2023-9-27T02:03:54Z
2023-09-27T00:04:34Z,42.805,6.029,13.3031,4.60103,2470.661,2023-9-27T02:06:57Z
2023-09-27T00:07:37Z,42.805,6.029,13.3034,4.60099,2470.646,2023-9-27T02:10:00Z
2023-09-27T00:10:40Z,42.805,6.029,13.3031,4.60099,2470.646,2023-9-27T02:13:03Z
2023-09-27T00:13:43Z,42.805,6.029,13.3031,4.60102,2470.646,2023-9-27T02:16:06Z
2023-09-27T00:16:46Z,42.805,6.029,13.3029,4.60099,2470.67,2023-9-27T02:19:09Z
2023-09-27T00:19:49Z,42.805,6.029,13.3028,4.60099,2470.646,2023-9-27T02:22:12Z
2023-09-27T00:22:52Z,42.805,6.029,13.3026,4.60095,2470.624,2023-9-27T02:25:15Z
2023-09-27T00:25:55Z,42.805,6.029,13.3029,4.60095,2470.646,2023-9-27T02:28:18Z
2023-09-27T00:28:58Z,42.805,6.029,13.3028,4.60094,2470.67,2023-9-27T02:31:21Z
2023-09-27T00:32:01Z,42.805,6.029,13.3026,4.60096,2470.637,2023-9-27T02:34:24Z
2023-09-27T00:35:05Z,42.805,6.029,13.3028,4.60094,2470.646,2023-9-27T02:37:27Z
2023-09-27T00:38:08Z,42.805,6.029,13.3028,4.60093,2470.661,2023-9-27T02:40:31Z
2023-09-27T00:41:11Z,42.805,6.029,13.3026,4.60092,2470.6,2023-9-27T02:43:34Z
2023-09-27T00:44:14Z,42.805,6.029,13.3027,4.60093,2470.624,2023-9-27T02:46:37Z
2023-09-27T00:47:17Z,42.805,6.029,13.3028,4.60094,2470.684,2023-9-27T02:49:40Z
2023-09-27T00:50:20Z,42.805,6.029,13.3028,4.60097,2470.67,2023-9-27T02:52:43Z
2023-09-27T00:53:23Z,42.805,6.029,13.3028,4.60097,2470.624,2023-9-27T02:55:46Z
2023-09-27T00:56:26Z,42.805,6.029,13.3026,4.60092,2470.633,2023-9-27T02:58:49Z
2023-09-27T00:59:29Z,42.805,6.029,13.3028,4.60096,2470.646,2023-9-27T03:01:52Z
2023-09-27T01:02:32Z,42.805,6.029,13.3025,4.60092,2470.661,2023-9-27T03:04:55Z
2023-09-27T01:05:35Z,42.805,6.029,13.3024,4.60093,2470.61,2023-9-27T03:07:58Z
2023-09-27T01:08:38Z,42.805,6.029,13.3026,4.60094,2470.637,2023-9-27T03:11:01Z
2023-09-27T01:11:41Z,42.805,6.029,13.3028,4.60094,2470.61,2023-9-27T03:14:04Z
2023-09-27T01:14:45Z,42.805,6.029,13.3031,4.60097,2470.661,2023-9-27T03:17:07Z
2023-09-27T01:17:48Z,42.805,6.029,13.3030,4.60094,2470.646,2023-9-27T03:20:11Z
2023-09-27T01:20:51Z,42.805,6.029,13.3028,4.60097,2470.661,2023-9-27T03:23:14Z
2023-09-27T01:23:54Z,42.805,6.029,13.3029,4.60096,2470.661,2023-9-27T03:26:17Z
2023-09-27T01:26:57Z,42.805,6.029,13.3027,4.60096,2470.646,2023-9-27T03:29:20Z
2023-09-27T01:30:00Z,42.805,6.029,13.3026,4.60092,2470.646,2023-9-27T03:32:23Z
2023-09-27T01:33:03Z,42.805,6.029,13.3026,4.60094,2470.646,2023-9-27T03:35:26Z
2023-09-27T01:36:06Z,42.805,6.029,13.3026,4.60092,2470.646,2023-9-27T03:38:29Z
2023-09-27T01:39:09Z,42.805,6.029,13.3027,4.60092,2470.646,2023-9-27T03:41:32Z
2023-09-27T01:42:12Z,42.805,6.029,13.3031,4.60092,2470.684,2023-9-27T03:44:35Z
2023-09-27T01:45:15Z,42.805,6.029,13.3029,4.60092,2470.646,2023-9-27T03:47:38Z
2023-09-27T01:48:18Z,42.805,6.029,13.3027,4.60093,2470.67,2023-9-27T03:50:41Z
2023-09-27T01:51:22Z,42.805,6.029,13.3028,4.60094,2470.67,2023-9-27T03:53:44Z
2023-09-27T01:54:25Z,42.805,6.029,13.3037,4.60097,2470.67,2023-9-27T03:56:48Z
2023-09-27T01:57:28Z,42.805,6.029,13.3027,4.60096,2470.707,2023-9-27T03:59:51Z
2023-09-27T02:00:31Z,42.805,6.029,13.3029,4.60094,2470.67,2023-9-27T04:02:54Z
2023-09-27T02:03:34Z,42.805,6.029,13.3026,4.60093,2470.67,2023-9-27T04:05:57Z
2023-09-27T02:06:37Z,42.805,6.029,13.3029,4.60098,2470.717,2023-9-27T04:09:00Z
2023-09-27T02:09:40Z,42.805,6.029,13.3029,4.60093,2470.67,2023-9-27T04:12:03Z
2023-09-27T02:12:43Z,42.805,6.029,13.3028,4.60096,2470.684,2023-9-27T04:15:06Z
2023-09-27T02:15:46Z,42.805,6.029,13.3026,4.60098,2470.693,2023-9-27T04:18:09Z
2023-09-27T02:18:49Z,42.805,6.029,13.3029,4.60093,2470.646,2023-9-27T04:21:12Z
2023-09-27T02:21:52Z,42.805,6.029,13.3024,4.60096,2470.693,2023-9-27T04:24:15Z
2023-09-27T02:24:55Z,42.805,6.029,13.3027,4.60097,2470.707,2023-9-27T04:27:18Z
2023-09-27T02:27:58Z,42.805,6.029,13.3026,4.60093,2470.67,2023-9-27T04:30:21Z
2023-09-27T02:31:02Z,42.805,6.029,13.3027,4.60094,2470.67,2023-9-27T04:33:25Z
2023-09-27T02:34:05Z,42.805,6.029,13.3027,4.60094,2470.67,2023-9-27T04:36:28Z
2023-09-27T02:37:08Z,42.805,6.029,13.3027,4.60098,2470.707,2023-9-27T04:39:31Z
2023-09-27T02:40:11Z,42.805,6.029,13.3027,4.60093,2470.707,2023-9-27T04:42:34Z
2023-09-27T02:43:14Z,42.805,6.029,13.3026,4.60093,2470.693,2023-9-27T04:45:37Z
2023-09-27T02:46:17Z,42.805,6.029,13.3026,4.60093,2470.717,2023-9-27T04:48:40Z
2023-09-27T02:49:20Z,42.805,6.029,13.3029,4.60094,2470.693,2023-9-27T04:51:43Z
2023-09-27T02:52:23Z,42.805,6.029,13.3026,4.60093,2470.693,2023-9-27T04:54:46Z
2023-09-27T02:55:26Z,42.805,6.029,13.3027,4.60095,2470.717,2023-9-27T04:57:49Z
2023-09-27T02:58:29Z,42.805,6.029,13.3029,4.60097,2470.693,2023-9-27T05:00:52Z
2023-09-27T03:01:32Z,42.805,6.029,13.3027,4.60094,2470.693,2023-9-27T05:03:55Z
2023-09-27T03:04:35Z,42.805,6.029,13.3031,4.60095,2470.693,2023-9-27T05:06:58Z
2023-09-27T03:07:39Z,42.805,6.029,13.3026,4.60095,2470.717,2023-9-27T05:10:02Z
2023-09-27T03:10:42Z,42.805,6.029,13.3027,4.60094,2470.693,2023-9-27T05:13:05Z
2023-09-27T03:13:45Z,42.805,6.029,13.3027,4.60094,2470.73,2023-9-27T05:16:08Z
2023-09-27T03:16:48Z,42.805,6.029,13.3028,4.60095,2470.717,2023-9-27T05:19:11Z
2023-09-27T03:19:51Z,42.805,6.029,13.3031,4.60093,2470.717,2023-9-27T05:22:14Z
2023-09-27T03:22:54Z,42.805,6.029,13.3025,4.60096,2470.754,2023-9-27T05:25:17Z
2023-09-27T03:25:57Z,42.805,6.029,13.3029,4.60096,2470.763,2023-9-27T05:28:20Z
2023-09-27T03:29:00Z,42.805,6.029,13.3028,4.60094,2470.73,2023-9-27T05:31:23Z
2023-09-27T03:32:03Z,42.805,6.029,13.3025,4.60099,2470.73,2023-9-27T05:34:26Z
2023-09-27T03:35:06Z,42.805,6.029,13.3029,4.60097,2470.74,2023-9-27T05:37:29Z
2023-09-27T03:38:09Z,42.805,6.029,13.3028,4.60099,2470.717,2023-9-27T05:40:32Z
2023-09-27T03:41:12Z,42.805,6.029,13.3024,4.60095,2470.74,2023-9-27T05:43:35Z
2023-09-27T03:44:16Z,42.805,6.029,13.3028,4.60101,2470.717,2023-9-27T05:46:38Z
2023-09-27T03:47:19Z,42.805,6.029,13.3030,4.60097,2470.717,2023-9-27T05:49:42Z
2023-09-27T03:50:22Z,42.805,6.029,13.3026,4.60101,2470.777,2023-9-27T05:52:45Z
2023-09-27T03:53:25Z,42.805,6.029,13.3027,4.60094,2470.763,2023-9-27T05:55:48Z
2023-09-27T03:56:28Z,42.805,6.029,13.3027,4.60095,2470.754,2023-9-27T05:58:51Z
2023-09-27T03:59:31Z,42.805,6.029,13.3024,4.60095,2470.754,2023-9-27T06:01:54Z
2023-09-27T04:02:34Z,42.805,6.029,13.3029,4.60095,2470.787,2023-9-27T06:04:57Z
2023-09-27T04:05:37Z,42.805,6.029,13.3024,4.60097,2470.777,2023-9-27T06:08:00Z
2023-09-27T04:08:40Z,42.805,6.029,13.3029,4.60099,2470.717,2023-9-27T06:11:03Z
2023-09-27T04:11:43Z,42.805,6.029,13.3028,4.60098,2470.777,2023-9-27T06:14:06Z
2023-09-27T04:14:46Z,42.805,6.029,13.3030,4.60100,2470.74,2023-9-27T06:17:09Z
2023-09-27T04:17:49Z,42.805,6.029,13.3029,4.60098,2470.754,2023-9-27T06:20:12Z
2023-09-27T04:20:52Z,42.805,6.029,13.3027,4.60096,2470.74,2023-9-27T06:23:15Z
2023-09-27T04:23:56Z,42.805,6.029,13.3026,4.60104,2470.8,2023-9-27T06:26:19Z
2023-09-27T04:26:59Z,42.805,6.029,13.3032,4.60099,2470.777,2023-9-27T06:29:22Z
2023-09-27T04:30:02Z,42.805,6.029,13.3026,4.60102,2470.763,2023-9-27T06:32:25Z
2023-09-27T04:33:06Z,42.805,6.029,13.3029,4.60097,2470.787,2023-9-27T06:35:29Z
2023-09-27T04:36:09Z,42.805,6.029,13.3026,4.60099,2470.787,2023-9-27T06:38:32Z
2023-09-27T04:39:12Z,42.805,6.029,13.3030,4.60098,2470.74,2023-9-27T06:41:35Z
2023-09-27T04:42:15Z,42.805,6.029,13.3026,4.60095,2470.75,2023-9-27T06:44:38Z
2023-09-27T04:45:18Z,42.805,6.029,13.3031,4.60096,2470.763,2023-9-27T06:47:41Z
2023-09-27T04:48:21Z,42.805,6.029,13.3027,4.60098,2470.763,2023-9-27T06:50:44Z
2023-09-27T04:51:24Z,42.805,6.029,13.3024,4.60102,2470.777,2023-9-27T06:53:47Z
2023-09-27T04:54:27Z,42.805,6.029,13.3028,4.60099,2470.777,2023-9-27T06:56:50Z
2023-09-27T04:57:30Z,42.805,6.029,13.3032,4.60096,2470.81,2023-9-27T06:59:53Z
2023-09-27T05:00:33Z,42.805,6.029,13.3026,4.60095,2470.763,2023-9-27T07:02:56Z
2023-09-27T05:03:36Z,42.805,6.029,13.3031,4.60097,2470.787,2023-9-27T07:05:59Z
2023-09-27T05:06:40Z,42.805,6.029,13.3028,4.60096,2470.763,2023-9-27T07:09:03Z
2023-09-27T05:09:43Z,42.805,6.029,13.3030,4.60096,2470.754,2023-9-27T07:12:06Z
2023-09-27T05:12:46Z,42.805,6.029,13.3030,4.60096,2470.8,2023-9-27T07:15:09Z
2023-09-27T05:15:49Z,42.805,6.029,13.3029,4.60095,2470.8,2023-9-27T07:18:12Z
2023-09-27T05:18:52Z,42.805,6.029,13.3028,4.60097,2470.763,2023-9-27T07:21:15Z
2023-09-27T05:21:55Z,42.805,6.029,13.3028,4.60104,2470.763,2023-9-27T07:24:18Z
2023-09-27T05:24:58Z,42.805,6.029,13.3029,4.60096,2470.787,2023-9-27T07:27:21Z
2023-09-27T05:28:01Z,42.805,6.029,13.3024,4.60104,2470.777,2023-9-27T07:30:24Z
2023-09-27T05:31:04Z,42.805,6.029,13.3027,4.60096,2470.787,2023-9-27T07:33:27Z
2023-09-27T05:34:07Z,42.805,6.029,13.3029,4.60096,2470.777,2023-9-27T07:36:30Z
2023-09-27T05:37:10Z,42.805,6.029,13.3029,4.60096,2470.8,2023-9-27T07:39:33Z
2023-09-27T05:40:13Z,42.805,6.029,13.3032,4.60095,2470.763,2023-9-27T07:42:36Z
2023-09-27T05:43:17Z,42.805,6.029,13.3027,4.60096,2470.763,2023-9-27T07:45:40Z
2023-09-27T05:46:20Z,42.805,6.029,13.3029,4.60097,2470.787,2023-9-27T07:48:43Z
2023-09-27T05:49:23Z,42.805,6.029,13.3029,4.60097,2470.773,2023-9-27T07:51:46Z
2023-09-27T05:52:26Z,42.805,6.029,13.3029,4.60097,2470.787,2023-9-27T07:54:49Z
2023-09-27T05:55:29Z,42.805,6.029,13.3029,4.60096,2470.773,2023-9-27T07:57:52Z
2023-09-27T05:58:32Z,42.805,6.029,13.3029,4.60097,2470.74,2023-9-27T08:00:55Z
2023-09-27T06:01:35Z,42.805,6.029,13.3029,4.60097,2470.8,2023-9-27T08:03:58Z
2023-09-27T06:04:38Z,42.805,6.029,13.3027,4.60095,2470.787,2023-9-27T08:07:01Z
2023-09-27T06:07:41Z,42.805,6.029,13.3033,4.60095,2470.763,2023-9-27T08:10:04Z
2023-09-27T06:10:44Z,42.805,6.029,13.3030,4.60097,2470.787,2023-9-27T08:13:07Z
2023-09-27T06:13:47Z,42.805,6.029,13.3028,4.60098,2470.763,2023-9-27T08:16:10Z
2023-09-27T06:16:50Z,42.805,6.029,13.3029,4.60097,2470.787,2023-9-27T08:19:13Z
2023-09-27T06:19:54Z,42.805,6.029,13.3026,4.60096,2470.8,2023-9-27T08:22:17Z
2023-09-27T06:22:57Z,42.805,6.029,13.3031,4.60117,2470.787,2023-9-27T08:25:20Z
2023-09-27T06:26:00Z,42.805,6.029,13.3029,4.60096,2470.763,2023-9-27T08:28:23Z
2023-09-27T06:29:03Z,42.805,6.029,13.3028,4.60096,2470.8,2023-9-27T08:31:26Z
2023-09-27T06:32:06Z,42.805,6.029,13.3031,4.60096,2470.777,2023-9-27T08:34:29Z
2023-09-27T06:35:09Z,42.805,6.029,13.3028,4.60097,2470.787,2023-9-27T08:37:32Z
2023-09-27T06:38:12Z,42.805,6.029,13.3026,4.60097,2470.763,2023-9-27T08:40:35Z
2023-09-27T06:41:15Z,42.805,6.029,13.3026,4.60096,2470.777,2023-9-27T08:43:38Z
2023-09-27T06:44:18Z,42.805,6.029,13.3029,4.60098,2470.763,2023-9-27T08:46:41Z
2023-09-27T06:47:21Z,42.805,6.029,13.3026,4.60096,2470.763,2023-9-27T08:49:44Z
2023-09-27T06:50:24Z,42.805,6.029,13.3031,4.60097,2470.763,2023-9-27T08:52:47Z
2023-09-27T06:53:27Z,42.805,6.029,13.3028,4.60097,2470.754,2023-9-27T08:55:50Z
2023-09-27T06:56:30Z,42.805,6.029,13.3026,4.60094,2470.777,2023-9-27T08:58:53Z
2023-09-27T06:59:34Z,42.805,6.029,13.3029,4.60095,2470.8,2023-9-27T09:01:57Z
2023-09-27T07:02:37Z,42.805,6.029,13.3029,4.60097,2470.8,2023-9-27T09:05:00Z
2023-09-27T07:05:40Z,42.805,6.029,13.3026,4.60094,2470.74,2023-9-27T09:08:03Z
2023-09-27T07:08:43Z,42.805,6.029,13.3025,4.60101,2470.777,2023-9-27T09:11:06Z
2023-09-27T07:11:46Z,42.805,6.029,13.3029,4.60096,2470.763,2023-9-27T09:14:09Z
2023-09-27T07:14:49Z,42.805,6.029,13.3028,4.60097,2470.777,2023-9-27T09:17:12Z
2023-09-27T07:17:52Z,42.805,6.029,13.3032,4.60108,2470.763,2023-9-27T09:20:15Z
2023-09-27T07:20:55Z,42.805,6.029,13.3034,4.60096,2470.717,2023-9-27T09:23:18Z
2023-09-27T07:23:58Z,42.805,6.029,13.3027,4.60095,2470.787,2023-9-27T09:26:21Z
2023-09-27T07:27:01Z,42.805,6.029,13.3029,4.60096,2470.754,2023-9-27T09:29:24Z
2023-09-27T07:30:04Z,42.805,6.029,13.3026,4.60097,2470.754,2023-9-27T09:32:27Z
2023-09-27T07:33:07Z,42.805,6.029,13.3031,4.60094,2470.74,2023-9-27T09:35:30Z
2023-09-27T07:36:11Z,42.805,6.029,13.3028,4.60096,2470.763,2023-9-27T09:38:34Z
2023-09-27T07:39:14Z,42.805,6.029,13.3027,4.60099,2470.777,2023-9-27T09:41:37Z
2023-09-27T07:42:17Z,42.805,6.029,13.3031,4.60096,2470.763,2023-9-27T09:44:40Z
2023-09-27T07:45:20Z,42.805,6.029,13.3030,4.60097,2470.754,2023-9-27T09:47:43Z
2023-09-27T07:48:23Z,42.805,6.029,13.3027,4.60095,2470.74,2023-9-27T09:50:46Z
2023-09-27T07:51:26Z,42.805,6.029,13.3027,4.60097,2470.754,2023-9-27T09:53:49Z
2023-09-27T07:54:29Z,42.805,6.029,13.3029,4.60095,2470.693,2023-9-27T09:56:52Z
2023-09-27T07:57:32Z,42.805,6.029,13.3030,4.60096,2470.74,2023-9-27T09:59:55Z
2023-09-27T08:00:35Z,42.805,6.029,13.3030,4.60094,2470.763,2023-9-27T10:02:58Z
2023-09-27T08:03:38Z,42.805,6.029,13.3024,4.60095,2470.74,2023-9-27T10:06:01Z
2023-09-27T08:06:41Z,42.805,6.029,13.3026,4.60094,2470.73,2023-9-27T10:09:04Z
2023-09-27T08:09:44Z,42.805,6.029,13.3026,4.60095,2470.74,2023-9-27T10:12:07Z
2023-09-27T08:12:48Z,42.805,6.029,13.3026,4.60095,2470.74,2023-9-27T10:15:10Z
2023-09-27T08:15:51Z,42.805,6.029,13.3027,4.60097,2470.754,2023-9-27T10:18:14Z
2023-09-27T08:18:54Z,42.805,6.029,13.3029,4.60095,2470.717,2023-9-27T10:21:17Z
2023-09-27T08:21:57Z,42.805,6.029,13.3025,4.60095,2470.74,2023-9-27T10:24:20Z
2023-09-27T08:25:00Z,42.805,6.029,13.3026,4.60097,2470.73,2023-9-27T10:27:23Z
2023-09-27T08:28:03Z,42.805,6.029,13.3028,4.60097,2470.73,2023-9-27T10:30:26Z
2023-09-27T08:31:06Z,42.805,6.029,13.3030,4.60095,2470.717,2023-9-27T10:33:29Z
2023-09-27T08:34:09Z,42.805,6.029,13.3027,4.60097,2470.717,2023-9-27T10:36:32Z
2023-09-27T08:37:12Z,42.805,6.029,13.3029,4.60093,2470.74,2023-9-27T10:39:35Z
2023-09-27T08:40:15Z,42.805,6.029,13.3026,4.60095,2470.717,2023-9-27T10:42:38Z
2023-09-27T08:43:18Z,42.805,6.029,13.3031,4.60094,2470.73,2023-9-27T10:45:41Z
2023-09-27T08:46:21Z,42.805,6.029,13.3029,4.60095,2470.693,2023-9-27T10:48:44Z
2023-09-27T08:49:25Z,42.805,6.029,13.3029,4.60096,2470.707,2023-9-27T10:51:48Z
2023-09-27T08:52:28Z,42.805,6.029,13.3023,4.60110,2470.717,2023-9-27T10:54:51Z
2023-09-27T08:55:31Z,42.805,6.029,13.3029,4.60094,2470.754,2023-9-27T10:57:54Z
2023-09-27T08:58:34Z,42.805,6.029,13.3023,4.60095,2470.693,2023-9-27T11:00:57Z
2023-09-27T09:01:37Z,42.805,6.029,13.3026,4.60096,2470.717,2023-9-27T11:04:00Z
2023-09-27T09:04:40Z,42.805,6.029,13.3031,4.60094,2470.73,2023-9-27T11:07:03Z
2023-09-27T09:07:43Z,42.805,6.029,13.3031,4.60096,2470.74,2023-9-27T11:10:06Z
2023-09-27T09:10:46Z,42.805,6.029,13.3026,4.60094,2470.73,2023-9-27T11:13:09Z
2023-09-27T09:13:49Z,42.805,6.029,13.3025,4.60094,2470.693,2023-9-27T11:16:12Z
2023-09-27T09:16:52Z,42.805,6.029,13.3029,4.60093,2470.717,2023-9-27T11:19:15Z
2023-09-27T09:19:55Z,42.805,6.029,13.3029,4.60093,2470.67,2023-9-27T11:22:18Z
2023-09-27T09:22:58Z,42.805,6.029,13.3031,4.60099,2470.707,2023-9-27T11:25:21Z
2023-09-27T09:26:02Z,42.805,6.029,13.3029,4.60093,2470.707,2023-9-27T11:28:25Z
2023-09-27T09:29:05Z,42.805,6.029,13.3027,4.60094,2470.693,2023-9-27T11:31:28Z
2023-09-27T09:32:08Z,42.805,6.029,13.3031,4.60094,2470.717,2023-9-27T11:34:31Z
2023-09-27T09:35:11Z,42.805,6.029,13.3026,4.60094,2470.67,2023-9-27T11:37:34Z
2023-09-27T09:38:14Z,42.805,6.029,13.3028,4.60093,2470.693,2023-9-27T11:40:37Z
2023-09-27T09:41:17Z,42.805,6.029,13.3031,4.60094,2470.67,2023-9-27T11:43:40Z
2023-09-27T09:44:20Z,42.805,6.029,13.3030,4.60094,2470.707,2023-9-27T11:46:43Z
2023-09-27T09:47:23Z,42.805,6.029,13.3029,4.60095,2470.693,2023-9-27T11:49:46Z
2023-09-27T09:50:26Z,42.805,6.029,13.3031,4.60094,2470.684,2023-9-27T11:52:49Z
2023-09-27T09:53:29Z,42.805,6.029,13.3031,4.60094,2470.693,2023-9-27T11:55:52Z
2023-09-27T09:56:32Z,42.805,6.029,13.3030,4.60094,2470.661,2023-9-27T11:58:55Z
2023-09-27T09:59:36Z,42.805,6.029,13.3027,4.60093,2470.707,2023-9-27T12:01:59Z
2023-09-27T10:02:39Z,42.805,6.029,13.3030,4.60093,2470.707,2023-9-27T12:05:02Z
2023-09-27T10:05:42Z,42.805,6.029,13.3025,4.60092,2470.684,2023-9-27T12:08:05Z
2023-09-27T10:08:45Z,42.805,6.029,13.3031,4.60092,2470.684,2023-9-27T12:11:08Z
2023-09-27T10:11:48Z,42.805,6.029,13.3031,4.60094,2470.67,2023-9-27T12:14:11Z
2023-09-27T10:14:51Z,42.805,6.029,13.3027,4.60093,2470.67,2023-9-27T12:17:14Z
2023-09-27T10:17:54Z,42.805,6.029,13.3026,4.60094,2470.67,2023-9-27T12:20:17Z
2023-09-27T10:20:57Z,42.805,6.029,13.3030,4.60097,2470.646,2023-9-27T12:23:20Z
2023-09-27T10:24:00Z,42.805,6.029,13.3028,4.60093,2470.646,2023-9-27T12:26:23Z
2023-09-27T10:27:03Z,42.805,6.029,13.3031,4.60092,2470.67,2023-9-27T12:29:26Z
2023-09-27T10:30:07Z,42.805,6.029,13.3033,4.60097,2470.684,2023-9-27T12:32:30Z
2023-09-27T10:33:10Z,42.805,6.029,13.3029,4.60094,2470.646,2023-9-27T12:35:33Z
2023-09-27T10:36:13Z,42.805,6.029,13.3028,4.60092,2470.624,2023-9-27T12:38:36Z
2023-09-27T10:39:16Z,42.805,6.029,13.3026,4.60092,2470.646,2023-9-27T12:41:39Z
2023-09-27T10:42:19Z,42.805,6.029,13.3029,4.60092,2470.637,2023-9-27T12:44:42Z
2023-09-27T10:45:22Z,42.805,6.029,13.3026,4.60092,2470.624,2023-9-27T12:47:45Z
2023-09-27T10:48:25Z,42.805,6.029,13.3031,4.60093,2470.646,2023-9-27T12:50:48Z
2023-09-27T10:51:28Z,42.805,6.029,13.3031,4.60092,2470.646,2023-9-27T12:53:51Z
2023-09-27T10:54:32Z,42.805,6.029,13.3028,4.60093,2470.637,2023-9-27T12:56:55Z
2023-09-27T10:57:35Z,42.805,6.029,13.3031,4.60094,2470.624,2023-9-27T12:59:58Z
2023-09-27T11:00:38Z,42.805,6.029,13.3028,4.60094,2470.633,2023-9-27T13:03:01Z
2023-09-27T11:03:41Z,42.805,6.029,13.3030,4.60092,2470.624,2023-9-27T13:06:04Z
2023-09-27T11:06:44Z,42.805,6.029,13.3027,4.60096,2470.661,2023-9-27T13:09:07Z
2023-09-27T11:09:47Z,42.805,6.029,13.3028,4.60092,2470.646,2023-9-27T13:12:10Z
2023-09-27T11:12:50Z,42.805,6.029,13.3028,4.60092,2470.646,2023-9-27T13:15:13Z
2023-09-27T11:15:53Z,42.805,6.029,13.3028,4.60094,2470.6,2023-9-27T13:18:16Z
2023-09-27T11:18:56Z,42.805,6.029,13.3026,4.60093,2470.646,2023-9-27T13:21:19Z
2023-09-27T11:21:59Z,42.805,6.029,13.3026,4.60092,2470.6,2023-9-27T13:24:22Z
2023-09-27T11:25:02Z,42.805,6.029,13.3028,4.60092,2470.646,2023-9-27T13:27:25Z
2023-09-27T11:28:05Z,42.805,6.029,13.3026,4.60092,2470.637,2023-9-27T13:30:28Z
2023-09-27T11:31:09Z,42.805,6.029,13.3027,4.60094,2470.646,2023-9-27T13:33:32Z
2023-09-27T11:34:12Z,42.805,6.029,13.3028,4.60095,2470.6,2023-9-27T13:36:35Z
2023-09-27T11:37:15Z,42.805,6.029,13.3031,4.60094,2470.646,2023-9-27T13:39:38Z
2023-09-27T11:40:18Z,42.805,6.029,13.3029,4.60092,2470.637,2023-9-27T13:42:41Z
2023-09-27T11:43:21Z,42.805,6.029,13.3026,4.60093,2470.637,2023-9-27T13:45:44Z
2023-09-27T11:46:24Z,42.805,6.029,13.3026,4.60094,2470.624,2023-9-27T13:48:47Z
2023-09-27T11:49:27Z,42.805,6.029,13.3030,4.60095,2470.6,2023-9-27T13:51:50Z
2023-09-27T11:52:30Z,42.805,6.029,13.3031,4.60093,2470.646,2023-9-27T13:54:53Z
2023-09-27T11:55:33Z,42.805,6.029,13.3028,4.60094,2470.624,2023-9-27T13:57:56Z
2023-09-27T11:58:36Z,42.805,6.029,13.3029,4.60093,2470.637,2023-9-27T14:00:59Z
2023-09-27T12:01:39Z,42.805,6.029,13.3026,4.60094,2470.646,2023-9-27T14:04:02Z
2023-09-27T12:04:42Z,42.805,6.029,13.3027,4.60096,2470.614,2023-9-27T14:07:05Z
2023-09-27T12:07:46Z,42.805,6.029,13.3034,4.60093,2470.624,2023-9-27T14:10:09Z
2023-09-27T12:10:49Z,42.805,6.029,13.3024,4.60093,2470.624,2023-9-27T14:13:12Z
2023-09-27T12:13:52Z,42.805,6.029,13.3030,4.60093,2470.646,2023-9-27T14:16:15Z
2023-09-27T12:16:55Z,42.805,6.029,13.3030,4.60097,2470.646,2023-9-27T14:19:18Z
2023-09-27T12:19:58Z,42.805,6.029,13.3030,4.60095,2470.661,2023-9-27T14:22:21Z
2023-09-27T12:23:01Z,42.805,6.029,13.3027,4.60094,2470.586,2023-9-27T14:25:24Z
2023-09-27T12:26:04Z,42.805,6.029,13.3029,4.60094,2470.684,2023-9-27T14:28:27Z
2023-09-27T12:29:07Z,42.805,6.029,13.3027,4.60095,2470.624,2023-9-27T14:31:30Z
2023-09-27T12:32:11Z,42.805,6.029,13.3029,4.60096,2470.624,2023-9-27T14:34:34Z
2023-09-27T12:35:14Z,42.805,6.029,13.3027,4.60094,2470.624,2023-9-27T14:37:37Z
2023-09-27T12:38:18Z,42.805,6.029,13.3029,4.60094,2470.67,2023-9-27T14:40:41Z
2023-09-27T12:41:21Z,42.805,6.029,13.3030,4.60094,2470.624,2023-9-27T14:43:44Z
2023-09-27T12:44:24Z,42.805,6.029,13.3025,4.60095,2470.646,2023-9-27T14:46:47Z
2023-09-27T12:47:27Z,42.805,6.029,13.3031,4.60096,2470.646,2023-9-27T14:49:50Z
2023-09-27T12:50:30Z,42.805,6.029,13.3030,4.60096,2470.646,2023-9-27T14:52:53Z
2023-09-27T12:53:33Z,42.805,6.029,13.3031,4.60095,2470.646,2023-9-27T14:55:56Z
2023-09-27T12:56:36Z,42.805,6.029,13.3028,4.60096,2470.637,2023-9-27T14:58:59Z
2023-09-27T12:59:39Z,42.805,6.029,13.3024,4.60095,2470.646,2023-9-27T15:02:02Z
2023-09-27T13:02:42Z,42.805,6.029,13.3028,4.60092,2470.646,2023-9-27T15:05:05Z
2023-09-27T13:05:45Z,42.805,6.029,13.3024,4.60097,2470.646,2023-9-27T15:08:08Z
2023-09-27T13:08:48Z,42.805,6.029,13.3026,4.60098,2470.646,2023-9-27T15:11:11Z
2023-09-27T13:11:52Z,42.805,6.029,13.3026,4.60092,2470.646,2023-9-27T15:14:15Z
2023-09-27T13:14:55Z,42.805,6.029,13.3026,4.60097,2470.67,2023-9-27T15:17:18Z
2023-09-27T13:17:58Z,42.805,6.029,13.3029,4.60092,2470.646,2023-9-27T15:20:21Z
2023-09-27T13:21:01Z,42.805,6.029,13.3030,4.60094,2470.67,2023-9-27T15:23:24Z
2023-09-27T13:24:04Z,42.805,6.029,13.3031,4.60102,2470.661,2023-9-27T15:26:27Z
2023-09-27T13:27:07Z,42.805,6.029,13.3027,4.60093,2470.637,2023-9-27T15:29:30Z
2023-09-27T13:30:10Z,42.805,6.029,13.3028,4.60092,2470.693,2023-9-27T15:32:33Z
2023-09-27T13:33:13Z,42.805,6.029,13.3028,4.60093,2470.67,2023-9-27T15:35:36Z
2023-09-27T13:36:16Z,42.805,6.029,13.3026,4.60092,2470.707,2023-9-27T15:38:39Z
2023-09-27T13:39:19Z,42.805,6.029,13.3027,4.60094,2470.684,2023-9-27T15:41:42Z
2023-09-27T13:42:22Z,42.805,6.029,13.3026,4.60093,2470.646,2023-9-27T15:44:45Z
2023-09-27T13:45:26Z,42.805,6.029,13.3025,4.60094,2470.684,2023-9-27T15:47:49Z
2023-09-27T13:48:29Z,42.805,6.029,13.3029,4.60093,2470.67,2023-9-27T15:50:52Z
2023-09-27T13:51:32Z,42.805,6.029,13.3028,4.60094,2470.684,2023-9-27T15:53:55Z
2023-09-27T13:54:35Z,42.805,6.029,13.3026,4.60092,2470.717,2023-9-27T15:56:58Z
2023-09-27T13:57:38Z,42.805,6.029,13.3028,4.60092,2470.693,2023-9-27T16:00:01Z
2023-09-27T14:00:41Z,42.805,6.029,13.3027,4.60094,2470.693,2023-9-27T16:03:04Z
2023-09-27T14:03:44Z,42.805,6.029,13.3028,4.60092,2470.693,2023-9-27T16:06:07Z
2023-09-27T14:06:47Z,42.805,6.029,13.3028,4.60094,2470.693,2023-9-27T16:09:10Z
2023-09-27T14:09:50Z,42.805,6.029,13.3028,4.60093,2470.707,2023-9-27T16:12:13Z
2023-09-27T14:12:53Z,42.805,6.029,13.3024,4.60094,2470.717,2023-9-27T16:15:16Z
2023-09-27T14:15:56Z,42.805,6.029,13.3028,4.60097,2470.67,2023-9-27T16:18:19Z
2023-09-27T14:18:59Z,42.805,6.029,13.3029,4.60098,2470.693,2023-9-27T16:21:22Z
2023-09-27T14:22:03Z,42.805,6.029,13.3026,4.60097,2470.707,2023-9-27T16:24:26Z
2023-09-27T14:25:06Z,42.805,6.029,13.3030,4.60094,2470.73,2023-9-27T16:27:29Z
2023-09-27T14:28:09Z,42.805,6.029,13.3026,4.60093,2470.684,2023-9-27T16:30:32Z
2023-09-27T14:31:11Z,42.805,6.029,13.3024,4.60093,2470.707,2023-9-27T16:33:34Z
2023-09-27T14:34:14Z,42.805,6.029,13.3028,4.60094,2470.717,2023-9-27T16:36:37Z
2023-09-27T14:37:17Z,42.805,6.029,13.3028,4.60093,2470.693,2023-9-27T16:39:40Z
2023-09-27T14:40:20Z,42.805,6.029,13.3029,4.60094,2470.74,2023-9-27T16:42:43Z
2023-09-27T14:43:23Z,42.805,6.029,13.3024,4.60095,2470.763,2023-9-27T16:45:46Z
2023-09-27T14:46:26Z,42.805,6.029,13.3030,4.60094,2470.73,2023-9-27T16:48:49Z
2023-09-27T14:49:29Z,42.805,6.029,13.3026,4.60094,2470.74,2023-9-27T16:51:52Z
2023-09-27T14:52:32Z,42.805,6.029,13.3029,4.60094,2470.726,2023-9-27T16:54:55Z
2023-09-27T14:55:35Z,42.805,6.029,13.3026,4.60094,2470.754,2023-9-27T16:57:58Z
2023-09-27T14:58:38Z,42.805,6.029,13.3026,4.60094,2470.74,2023-9-27T17:01:01Z
2023-09-27T15:01:41Z,42.805,6.029,13.3031,4.60093,2470.763,2023-9-27T17:04:04Z
2023-09-27T15:04:44Z,42.805,6.029,13.3026,4.60093,2470.754,2023-9-27T17:07:07Z
2023-09-27T15:07:48Z,42.805,6.029,13.3028,4.60094,2470.763,2023-9-27T17:10:11Z
2023-09-27T15:10:51Z,42.805,6.029,13.3027,4.60093,2470.754,2023-9-27T17:13:14Z
2023-09-27T15:13:54Z,42.805,6.029,13.3025,4.60094,2470.74,2023-9-27T17:16:17Z